Current weather by "City, St" or "zip code"  
 

Current Conditions: Allentown, Lehigh Valley International Airport, PA

Fair


33.0 F

Last Updated on Mar 20 2019, 8:51 am EDT
Humidity: 66%
Wind Speed: N 0.0 mph
Barometer 30.39 in
Dewpoint: 23.0 F
Visibility: 10.00 mi
Precip: --
Heat Index: NA
Wind Chill: NA
Current conditions at:

Allentown, Lehigh Valley International Airport, PA (KABE)

Lat: 40.64 Lon: 75.447

Local Radar Image active severe weather and emergency alerts image image weather storm and storm spotter reports image weather observation monitoring service image
Local
Radar
Active
Alerts
Storm Reports Obs
Monitoring

iAlert Weather and Emergency Alert Notification Services:


ialert severe weather and emergency alerts by text message and email ialert daily weather forecast by email and text message service ialert real-time weather-observation monitoring and alert notification service ialert storm report monitoring alert notification

Observation History for Allentown, Lehigh Valley International Airport, PA


Time Wind
(mph)
Vis
(mi)
Weather Precip (in) Temperature (F) Relative
Humidity
Wind
Chill
(°F)
Heat
Index
(°F)
Pressure
Air Dwpt altimeter
(in)
sea level
(mb)
8:51 am EDT N 0.0 10.00 Fair -- 33.0 23.0 66% NA NA 30.39 1029.6
7:51 am EDT NW 3.5 10.00 Fair -- 26.0 19.9 78% NA NA 30.39 1029.6
6:51 am EDT NW 3.5 10.00 Fair -- 25.0 18.0 75% NA NA 30.38 1029.1
5:51 am EDT N 0.0 10.00 Fair -- 26.0 18.0 71% NA NA 30.37 1028.9
4:51 am EDT N 0.0 10.00 Fair -- 26.0 18.0 71% NA NA 30.37 1028.8
3:51 am EDT N 3.5 10.00 Fair -- 29.0 19.0 66% NA NA 30.37 1028.8
2:51 am EDT N 0.0 10.00 Fair -- 29.0 19.0 66% NA NA 30.39 1029.3
1:51 am EDT N 0.0 10.00 Fair -- 29.0 19.0 66% NA NA 30.38 1029.1
12:51 am EDT NW 3.5 10.00 Fair -- 30.0 19.9 66% NA NA 30.38 1029.1
11:51 pm EDT N 0.0 10.00 Fair -- 31.0 19.0 61% NA NA 30.38 1029.2
10:51 pm EDT N 0.0 10.00 Fair -- 32.0 18.0 56% NA NA 30.38 1029.2
9:51 pm EDT SW 3.5 10.00 Fair -- 40.0 16.0 38% NA NA 30.39 1029.2
8:51 pm EDT SW 5.8 10.00 Fair -- 40.0 16.0 38% 36 NA 30.38 1029.1
7:51 pm EDT N 0.0 10.00 Fair -- 41.0 14.0 33% NA NA 30.36 1028.6
6:51 pm EDT W 4.6 10.00 A Few Clouds -- 47.0 12.9 25% 45 NA 30.36 1028.3
5:51 pm EDT 4.6 10.00 A Few Clouds -- 49.0 12.0 22% 47 NA 30.35 1028.1
4:51 pm EDT W 8.1 10.00 Partly Cloudy -- 49.0 12.9 23% 46 NA 30.36 1028.4
3:51 pm EDT W 8.1 10.00 Mostly Cloudy Trace 49.0 12.0 22% 46 NA 30.37 1028.7
2:51 pm EDT W 10.4 10.00 A Few Clouds Trace 50.0 14.0 24% 46 NA 30.38 1028.9
1:51 pm EDT W 9.2 10.00 Partly Cloudy Trace 49.0 14.0 25% 45 NA 30.41 1029.9
12:51 pm EDT W 8.1 10.00 A Few Clouds -- 47.0 15.1 28% 43 NA 30.43 1030.6
11:51 am EDT 4.6 10.00 Fair -- 45.0 18.0 34% 43 NA 30.44 1031.1
10:51 am EDT N 4.6 10.00 Fair -- 42.0 19.0 40% 39 NA 30.45 1031.4
9:51 am EDT N 0.0 10.00 Fair -- 39.0 19.0 45% NA NA 30.44 1031.1

Regional Weather Observation


Allentown Queen City Municipal Airport, PA (KXLL)

Fair
32.0 F

Quakertown Airport, PA (KUKT)

Fair
34.0 F

Reading, Reading Regional Airport, PA (KRDG)

Fair
33.0 F

Mount Pocono, Pocono Mountains Municipal Airport, PA (KMPO)

Fair
34.0 F

Pottstown, Pottstown Limerick Airport, PA (KPTW)

Fair
34.0 F

Doylestown, Doylestown Airport, PA (KDYL)

Fair
35.0 F

Advertise Here


Advertise Here